This is the latest recevied weather packets stored in our database for station/object KF4UQS-14. If no packets are shown the sender has not sent any weather packets the latest 10 day(s).
| Time | Temp. | Humidity | Pressure | Rain* | Wind** | Luminosity | Snow |
|---|---|---|---|---|---|---|---|
| 1777725703 | 13.33° C | 87% | 1012.6 hPa | 0 mm | - | 45 W/m² | - |
| 1777725402 | 13.33° C | 88% | 1012.6 hPa | 0 mm | - | 42 W/m² | - |
| 1777725099 | 13.33° C | 88% | 1012.8 hPa | 0 mm | - | 39 W/m² | - |
| 1777724795 | 13.33° C | 88% | 1012.8 hPa | 0 mm | - | 37 W/m² | - |
| 1777724492 | 13.33° C | 88% | 1012.8 hPa | 0 mm | - | 35 W/m² | - |
| 1777724190 | 13.33° C | 89% | 1012.5 hPa | 0 mm | - | 31 W/m² | - |
| 1777723887 | 13.33° C | 89% | 1012.6 hPa | 0 mm | - | 30 W/m² | - |
| 1777723584 | 13.33° C | 89% | 1012.8 hPa | 0 mm | - | 31 W/m² | - |
| 1777723281 | 13.33° C | 89% | 1012.5 hPa | 0 mm | - | 29 W/m² | - |
| 1777722979 | 13.33° C | 88% | 1012.6 hPa | 0 mm | - | 29 W/m² | - |
| 1777722674 | 13.33° C | 88% | 1012.8 hPa | 0 mm | - | 28 W/m² | - |
| 1777722370 | 12.78° C | 88% | 1012.6 hPa | 0 mm | - | 27 W/m² | - |
| 1777722068 | 13.33° C | 88% | 1012.9 hPa | 0 mm | - | 24 W/m² | - |
| 1777721765 | 12.78° C | 88% | 1012.7 hPa | 0 mm | - | 20 W/m² | - |
| 1777721463 | 12.78° C | 87% | 1012.9 hPa | 0 mm | - | 17 W/m² | - |
| 1777721161 | 12.78° C | 87% | 1013 hPa | 0 mm | - | 17 W/m² | - |
| 1777720858 | 12.78° C | 87% | 1013.2 hPa | 0 mm | - | 12 W/m² | - |
| 1777720555 | 12.78° C | 87% | 1013.2 hPa | 0 mm | - | 12 W/m² | - |
| 1777720253 | 12.78° C | 87% | 1013.2 hPa | 0 mm | - | 10 W/m² | - |
| 1777719950 | 12.78° C | 87% | 1013.2 hPa | 0 mm | - | 8 W/m² | - |
| 1777719648 | 12.78° C | 88% | 1013.1 hPa | 0 mm | - | 8 W/m² | - |
| 1777719345 | 12.78° C | 88% | 1013.1 hPa | 0 mm | - | 7 W/m² | - |
| 1777719042 | 12.78° C | 87% | 1013 hPa | 0 mm | - | 6 W/m² | - |
| 1777718739 | 12.78° C | 87% | 1012.8 hPa | 0 mm | - | 5 W/m² | - |
| 1777718437 | 12.78° C | 86% | 1012.7 hPa | 0 mm | - | 5 W/m² | - |
* Rain latest hour (hover to see other rain measurements)
** Current wind speed in m/s (hover to see current wind gust speed)